Tracking 25701 objects as of 4-Jul-2022
HD Live streaming from Space Station
objects crossing your sky now

ATLAS 5 CENTAUR DEB

Track ATLAS 5 CENTAUR DEB now!


NORAD ID: 43967
Int'l Code: 2014-055W
Perigee: 7,745.4 km
Apogee: 36,009.4 km
Inclination: 21.0 °
Period: 787.5 minutes
Semi major axis: 28248 km
RCS: Unknown
Launch date: September 17, 2014
Source: United States (US)
Launch site: AIR FORCE EASTERN TEST RANGE (AFETR)

Note: This is SATELLITE DEBRIS
aabbcc
Your satellite tracking list
Your tracking list is empty




NASA's NSSDC Master Catalog

Two Line Element Set (TLE):
1 43967U 14055W   22181.51754940 -.00000080  00000-0  00000-0 0  9992
2 43967  21.0295 278.6957 5002761 286.0815  26.2266  1.82857420 25520
Source of the keplerian elements: AFSPC